Location: Moscow Mills
(39.6029°N, 81.6257°W)
Time: 08:35:16
(UTC+00:00)

BlueWalker 3 - Visible Passes

Search period start: 11 October 2024 00:00
Search period end: 21 October 2024 00:00
Orbit: 472 x 485 km, 53.2° (Epoch: 10 October)

Date Brightness Start Highest point End Pass type
(mag) Time Alt. Az. Time Alt. Az. Time Alt. Az.
11 Oct 4.2 10:10:17 11° NNW 10:11:06 12° NNW 10:12:38 10° NNE visible
12 Oct 4.3 09:43:04 12° N 09:43:04 12° N 09:44:19 10° NNE visible
13 Oct 4.8 09:15:48 11° NNE 09:15:48 11° NNE 09:15:58 10° NNE visible
13 Oct 4.5 10:52:58 10° N 10:53:28 10° N 10:53:59 10° NNE visible
14 Oct 4.6 10:24:42 10° N 10:24:54 10° N 10:25:07 10° N visible
16 Oct 4.1 11:04:17 10° NNW 11:06:53 18° NNE 11:09:29 10° ENE visible
17 Oct 4.2 10:35:47 10° NNW 10:38:15 17° NNE 10:40:42 10° ENE visible
18 Oct 4.3 10:07:27 11° NNW 10:09:34 16° NNE 10:11:53 10° ENE visible
19 Oct 4.3 09:40:07 14° N 09:40:51 15° NNE 09:43:00 10° NE visible
20 Oct 4.7 09:12:49 13° NNE 09:12:49 13° NNE 09:14:05 10° NE visible
20 Oct 2.5 10:47:07 10° NW 10:50:44 51° NE 10:54:19 10° ESE visible
